Vertical_Velocity
-1 -0 -1 -1 0 1 0 -0 1 1 0 -0 -1 -1 -1 -1 -1 -1 -1 -1 -1 -1 -1 -1 -2 -2 -4 -2 -0 -1 -2 -2 -0 -2 1 -3 -1 4 -8 -6 -2 -3 -5 -6 -10
-1 -1 -1 -1 -1 -1 -2 -1 -0 0 0 -0 -0 -0 -0 0 -1 0 -1 -1 -1 -1 -0 0 -1 -1 -3 -3 -4 -0 -1 -1 -3 -4 -5 -1 -2 -0 3 -2 -7 -10 -0 -4 0
-0 -1 -1 -1 -0 1 1 1 1 0 -0 -0 -0 -1 -1 -1 0 -1 -1 -1 -2 -1 -1 -0 0 0 -0 0 2 -1 -3 1 -3 -2 -3 -2 -4 -2 -2 -6 -2 -5 -3 -0 1
-0 -0 0 0 -1 -0 -1 -1 -1 -0 -0 -0 0 0 0 -0 -4 -1 -0 1 0 0 0 -1 -1 -1 0 -2 -2 -6 -2 -2 1 1 1 -2 -3 -4 -5 -8 -1 -3 -4 1 7
1 -0 -0 -0 -0 0 -1 -0 0 -1 -0 -0 -1 -2 -1 -1 6 1 -1 -1 -1 0 0 -0 -0 0 1 -1 -0 -5 3 -2 -0 -0 0 -0 -4 -8 -10 2 -1 -4 -8 2 -3
-0 1 -0 -0 0 1 1 2 1 0 -0 -0 0 -0 -1 4 -4 -1 -2 0 1 0 0 0 0 -0 -3 0 1 3 -2 -2 -0 2 0 -7 -4 8 13 -3 -2 -0 -4 4 -1
-0 0 1 0 -1 -1 -2 -1 -1 -1 -1 -1 -1 -3 -7 17 2 -2 2 1 1 2 0 -0 -0 1 -3 -0 -4 0 -9 -1 1 -1 -4 -1 -1 -9 -5 -5 -2 -2 -1 -4 2
-1 -1 -0 -0 -0 1 -1 -2 0 1 -0 -0 -0 -2 -5 -3 1 3 0 1 3 2 1 2 1 1 -1 2 -1 -5 -2 -2 -9 -2 -1 1 -10 -1 0 -8 -2 -5 -3 1 -25
-3 -3 -2 -2 -3 -3 0 -4 -1 -1 -1 -1 -2 5 -11 0 -3 -1 1 1 1 1 0 -1 2 2 -2 2 -2 1 -4 9 5 -6 1 2 -6 1 0 -3 -13 2 -2 9 -0
-3 -2 -1 -2 -3 -2 1 -2 -3 -2 -0 -1 -1 -2 5 -0 1 -1 1 0 1 -0 -2 1 0 -1 -0 3 -10 5 6 2 4 8 -1 3 -20 7 2 1 -10 3 0 1 5
-1 0 1 -1 -2 -4 1 -3 -3 -9 1 2 4 3 1 -3 3 4 3 4 1 -1 -4 -7 3 -12 7 1 1 1 0 -2 3 5 -6 5 -7 -2 6 -0 -8 7 -8 3 -3
-3 -2 -3 -2 -1 -2 -0 -0 4 1 -17 1 -0 -1 2 2 3 -1 5 3 2 -1 2 11 -11 2 2 3 2 2 2 -7 -3 -5 -4 0 -21 -6 -1 -2 -3 4 -0 9 5
-1 -2 -2 -2 -1 -1 -2 0 0 -1 -3 -12 -11 1 8 4 4 4 6 4 0 2 1 -2 -5 0 3 4 2 1 -1 -2 6 -3 -6 -3 -24 13 22 -1 -4 -5 1 5 -6
-3 -3 -2 -1 2 -0 2 1 1 0 -6 -1 -3 -7 1 2 1 1 8 7 -1 -2 4 -4 -1 -4 -0 -1 5 3 4 -0 -1 2 -1 0 -18 -7 16 3 -4 -7 -4 -3 10
1 -1 -1 2 -1 0 -1 1 2 3 3 -1 3 5 2 -1 2 5 5 3 4 4 0 -5 -2 1 1 -6 11 -4 -4 1 1 -1 5 -9 8 -29 3 13 -2 -1 -2 4 -6
-2 -3 -2 -1 -2 2 -1 0 5 4 -10 1 -2 1 1 3 1 1 3 3 0 -0 2 -1 3 -3 0 2 4 4 -1 -3 -1 -1 5 -11 10 -8 1 4 1 3 -3 1 0
-4 -1 -3 1 0 2 -0 3 4 1 0 0 1 -2 1 3 2 2 -0 -1 -2 1 2 3 -7 5 5 4 -1 0 2 -0 4 2 -5 -4 2 -25 -1 3 0 4 -1 -3 0
-1 -2 -4 -1 0 1 6 4 10 4 2 -3 0 1 -1 -4 6 3 3 1 0 4 -0 2 -4 1 -1 -8 -7 -3 -3 -7 -1 0 -3 -3 -6 -11 0 2 3 1 2 -1 0
-8 -4 1 0 2 -3 1 4 5 -2 2 -2 1 4 10 -0 -6 -6 0 17 4 -4 4 9 -4 4 1 6 6 -0 2 2 8 -3 7 -5 -11 -21 -3 -0 4 -0 3 1 2
-4 -2 -6 -2 1 -2 6 5 -1 -1 2 3 -3 -2 3 13 -7 11 2 0 3 1 3 -1 -9 -6 4 5 -2 5 7 8 3 1 1 -6 -3 -14 -3 3 5 -1 -0 2 2
-8 -2 1 1 1 0 8 7 4 3 -2 -2 -1 -3 -4 2 -4 -4 -9 2 3 -1 8 3 10 -4 2 -3 3 -1 -3 2 14 -6 -1 -1 -14 -14 4 3 3 2 1 0 1
-6 1 -2 -6 -5 2 5 -0 -2 3 3 -2 -4 4 1 -3 -9 4 -4 10 2 -4 -3 4 -1 -7 -11 8 2 9 -9 8 14 -13 -0 5 -51 9 4 1 4 2 1 -1 -0
-6 -1 -14 -7 5 1 0 -1 -1 1 1 -0 -4 10 -0 1 -3 5 3 -3 -8 6 2 1 10 -5 -12 -9 -6 13 11 27 34 18 -18 13 -28 3 -3 6 7 3 2 4 0
-6 -6 -7 -7 -9 -7 -7 2 3 0 -4 -2 -2 -3 -0 7 4 -4 -7 -5 3 -4 -11 8 -7 6 -0 -8 32 -6 -2 2 26 1 -5 -20 -15 -0 -1 2 3 2 6 3 3
2 -1 0 -12 -8 -3 1 -1 -8 -1 7 3 -11 6 8 1 -3 -0 3 1 -2 -2 4 9 -1 12 1 -2 -7 7 -14 4 8 -0 13 -17 26 -9 -5 6 1 -2 2 10 5
4 -4 -2 -6 -7 -7 7 -0 -2 -6 9 -8 8 5 -4 -2 9 -14 12 9 4 -8 10 5 -17 -1 -19 -6 -4 -8 3 -7 -3 -2 -5 5 -25 -9 39 32 29 3 -0 1 2
2 8 3 -3 -1 8 -3 -3 -8 11 -8 3 4 4 -2 -1 12 -4 -4 -17 -9 1 -2 14 9 9 -28 10 8 6 -18 -11 -9 7 -0 6 -19 -1 -3 7 -0 8 -2 4 0
Height
3133 3132 3131 3129 3128 3126 3125 3123 3122 3121 3119 3118 3117 3115 3114 3112 3110 3109 3108 3108 3106 3104 3103 3102 3100 3099 3097 3096 3095 3095 3094 3091 3092 3090 3088 3086 3083 3082 3080 3076 3075 3074 3073 3073 3073
3133 3132 3130 3129 3127 3126 3124 3123 3121 3120 3118 3116 3115 3114 3112 3110 3109 3107 3107 3105 3104 3102 3101 3099 3098 3096 3094 3093 3091 3091 3090 3088 3086 3084 3083 3081 3078 3076 3075 3072 3070 3068 3068 3068 3068
3132 3131 3129 3127 3125 3124 3122 3121 3119 3118 3116 3115 3113 3111 3110 3108 3107 3105 3104 3103 3101 3099 3098 3096 3094 3093 3091 3089 3088 3085 3084 3083 3080 3078 3076 3073 3072 3071 3069 3065 3065 3063 3062 3064 3064
3132 3130 3128 3126 3124 3122 3121 3119 3117 3116 3114 3113 3111 3109 3108 3106 3106 3102 3100 3099 3097 3096 3094 3092 3091 3089 3088 3085 3083 3081 3078 3077 3075 3072 3070 3067 3065 3062 3062 3059 3060 3057 3055 3056 3057
3130 3128 3126 3124 3122 3120 3119 3117 3115 3113 3112 3110 3108 3106 3104 3103 3102 3099 3097 3095 3094 3092 3090 3089 3087 3086 3084 3082 3080 3076 3074 3073 3070 3066 3064 3061 3057 3056 3052 3053 3053 3051 3049 3048 3051
3128 3126 3123 3121 3119 3117 3116 3114 3112 3110 3108 3106 3104 3102 3100 3098 3095 3093 3092 3090 3088 3087 3086 3085 3084 3082 3079 3078 3076 3073 3069 3066 3065 3062 3058 3055 3051 3051 3048 3047 3046 3044 3043 3042 3044
3125 3123 3121 3118 3116 3114 3112 3110 3108 3106 3104 3101 3099 3095 3093 3094 3089 3086 3085 3083 3081 3081 3080 3079 3078 3078 3075 3073 3070 3067 3065 3061 3059 3057 3054 3050 3043 3041 3041 3041 3040 3039 3038 3037 3035
3122 3119 3117 3114 3112 3110 3107 3104 3102 3099 3097 3095 3092 3088 3084 3083 3080 3079 3077 3075 3075 3075 3075 3074 3073 3072 3070 3069 3066 3064 3062 3059 3054 3053 3050 3046 3035 3039 3039 3036 3034 3034 3033 3032 3030
3117 3115 3112 3109 3107 3104 3101 3098 3095 3093 3090 3088 3085 3082 3076 3074 3072 3070 3070 3070 3070 3070 3069 3068 3067 3066 3065 3064 3063 3062 3058 3058 3056 3050 3048 3043 3032 3034 3033 3031 3028 3027 3027 3027 3028
3112 3109 3106 3102 3100 3097 3094 3090 3087 3084 3082 3079 3076 3076 3071 3068 3066 3064 3063 3063 3063 3062 3062 3062 3061 3060 3059 3059 3058 3057 3055 3053 3052 3051 3044 3039 3028 3028 3028 3025 3020 3018 3020 3022 3024
3106 3103 3099 3096 3093 3090 3088 3083 3081 3075 3073 3073 3069 3065 3062 3058 3055 3054 3054 3054 3054 3054 3054 3054 3054 3051 3056 3055 3053 3053 3051 3048 3046 3046 3039 3032 3024 3021 3022 3018 3013 3010 3013 3017 3021
3099 3096 3093 3089 3086 3082 3079 3076 3072 3068 3056 3062 3060 3053 3052 3045 3042 3041 3045 3046 3045 3044 3048 3053 3044 3046 3049 3052 3049 3048 3047 3043 3043 3037 3033 3027 3015 3016 3012 3011 3008 3005 3006 3012 3019
3093 3089 3085 3081 3077 3074 3070 3068 3063 3059 3051 3041 3048 3043 3039 3038 3035 3033 3035 3037 3038 3039 3042 3042 3042 3041 3041 3043 3043 3042 3042 3041 3040 3036 3031 3025 3013 3014 3013 3007 3004 3002 3001 3006 3011
3084 3082 3077 3074 3071 3065 3063 3060 3057 3053 3046 3037 3033 3031 3032 3031 3030 3029 3029 3033 3033 3033 3038 3036 3034 3035 3036 3037 3040 3038 3039 3037 3035 3034 3031 3030 3012 3008 3011 3007 3000 3001 2998 3001 3004
3075 3072 3068 3064 3061 3059 3057 3053 3051 3050 3046 3034 3029 3028 3028 3030 3029 3027 3027 3027 3028 3028 3031 3028 3027 3028 3030 3030 3035 3034 3033 3033 3031 3030 3028 3026 3023 3002 3008 3007 3001 2998 3000 2998 2999
3069 3066 3061 3059 3056 3053 3051 3049 3048 3049 3037 3028 3025 3024 3024 3023 3023 3023 3025 3024 3023 3024 3023 3022 3022 3023 3025 3027 3029 3028 3029 3029 3028 3028 3022 3016 3018 3000 3003 3003 3000 2998 2998 2998 2998
3063 3059 3056 3052 3050 3047 3044 3044 3047 3040 3030 3024 3020 3020 3021 3021 3020 3019 3019 3019 3020 3020 3017 3015 3013 3015 3018 3021 3022 3023 3028 3028 3025 3025 3013 3009 3010 2995 2997 2997 2997 2996 2995 2998 2999
3057 3052 3048 3045 3043 3040 3039 3039 3038 3028 3024 3017 3015 3016 3018 3016 3017 3016 3016 3016 3016 3015 3013 3010 3008 3009 3007 3008 3014 3013 3017 3017 3012 3008 3005 3007 3000 2991 2991 2992 2993 2993 2993 2994 2995
3051 3047 3042 3038 3034 3033 3034 3035 3027 3020 3017 3014 3014 3013 3014 3011 3012 3012 3013 3014 3008 3007 3008 3004 3000 3000 3000 3003 3008 3008 3007 3012 3012 3009 3009 2994 2990 2989 2989 2988 2990 2991 2991 2991 2993
3046 3041 3036 3033 3030 3029 3029 3026 3019 3016 3015 3012 3014 3014 3012 3011 3010 3011 3008 3005 3003 3002 3001 3000 2994 2994 2997 2996 2997 3000 3003 3007 3007 3003 2996 2984 2984 2982 2982 2983 2984 2986 2989 2990 2991
3039 3034 3030 3027 3024 3023 3023 3019 3014 3011 3011 3012 3010 3008 3008 3008 3006 3007 3006 3002 2999 2997 2997 2993 2994 2990 2989 2987 2991 2993 2993 2994 2995 2993 2986 2981 2978 2978 2979 2980 2980 2982 2985 2987 2988
3030 3030 3026 3022 3022 3016 3016 3013 3011 3009 3008 3006 3005 3005 3003 3003 3002 3003 3001 3001 2996 2994 2993 2992 2988 2983 2982 2985 2987 2987 2987 2989 2986 2983 2983 2983 2976 2978 2978 2977 2978 2980 2981 2983 2985
3024 3020 3016 3016 3017 3014 3012 3009 3007 3006 3004 3003 3003 3002 3000 3000 3000 2997 2997 2997 2996 2996 2993 2991 2988 2982 2973 2979 2978 2979 2982 2983 2980 2978 2974 2973 2968 2976 2977 2977 2977 2978 2979 2980 2982
3021 3020 3017 3016 3014 3011 3009 3008 3006 3004 3002 3001 3000 2999 2997 2996 2996 2992 2993 2993 2993 2992 2991 2990 2986 2987 2982 2974 2974 2973 2971 2970 2973 2970 2966 2965 2963 2971 2974 2976 2975 2975 2975 2976 2978
3019 3019 3015 3017 3013 3010 3008 3007 3004 3003 3002 3000 2997 2996 2995 2992 2991 2989 2988 2987 2987 2987 2985 2985 2980 2980 2976 2975 2972 2966 2966 2961 2966 2965 2967 2958 2962 2966 2971 2973 2973 2972 2972 2973 2973
3019 3015 3013 3010 3008 3006 3005 3003 3001 3000 2999 2996 2994 2992 2990 2989 2988 2984 2983 2981 2978 2980 2979 2978 2973 2973 2968 2968 2967 2959 2957 2956 2950 2953 2957 2952 2949 2955 2963 2965 2968 2966 2968 2969 2971
3013 3010 3007 3007 3005 3003 3001 2999 2996 2994 2992 2990 2988 2986 2983 2983 2981 2980 2978 2974 2971 2970 2969 2970 2969 2966 2957 2955 2958 2950 2946 2941 2939 2940 2948 2942 2940 2946 2951 2955 2957 2960 2963 2964 2966